Location: Unspecified
(0.0000°N, 0.0000°E)
Time: 19:00:10
(UTC+00:00)

Vanguard 3 - Visible Passes

Search period start: 10 August 2020 00:00
Search period end: 20 August 2020 00:00
Orbit: 509 x 3262 km, 33.3° (Epoch: 10 August)

Date Brightness Start Highest point End Pass type
(mag) Time Alt. Az. Time Alt. Az. Time Alt. Az.
10 Aug 10.8 01:00:04 32° E 01:00:04 32° E 01:08:48 10° ENE visible
10 Aug 9.9 03:04:37 64° WNW 03:06:39 67° NW 03:25:11 10° NE visible
10 Aug 10.8 05:09:13 10° W 05:24:45 28° NNW 05:37:32 10° NNE visible
11 Aug 10.1 01:54:38 60° NE 01:54:38 60° NE 02:09:09 10° NE visible
11 Aug 10.4 03:59:10 32° WNW 04:07:02 42° NW 04:23:19 10° NNE visible
12 Aug 11.0 00:44:36 28° ENE 00:44:36 28° ENE 00:51:47 10° ENE visible
12 Aug 10.0 02:49:08 60° NW 02:49:17 60° NW 03:08:10 10° NE visible
12 Aug 10.9 04:53:41 11° WNW 05:08:04 26° NNW 05:20:54 10° NNE visible
13 Aug 10.3 01:39:04 51° NE 01:39:04 51° NE 01:51:59 10° NE visible
13 Aug 10.5 03:43:36 32° WNW 03:49:58 38° NNW 04:06:23 10° NNE visible
14 Aug 11.1 00:28:56 24° ENE 00:28:56 24° ENE 00:34:37 10° ENE visible
14 Aug 10.2 02:33:29 53° NNW 02:33:29 53° NNW 02:50:59 10° NE visible
14 Aug 11.0 04:38:01 11° WNW 04:51:29 24° NNW 05:04:15 10° NNE visible
15 Aug 10.5 01:23:19 43° NE 01:23:19 43° NE 01:34:40 10° NE visible
15 Aug 10.6 03:27:50 31° NW 03:33:02 34° NNW 03:49:21 10° NNE visible
16 Aug 11.2 00:13:07 20° ENE 00:13:07 20° ENE 00:17:15 10° ENE visible
16 Aug 10.3 02:17:38 46° NNW 02:17:38 46° NNW 02:33:40 10° NE visible
16 Aug 11.1 04:22:10 11° WNW 04:35:01 22° NNW 04:47:37 10° NNE visible
17 Aug 10.7 01:07:24 36° NE 01:07:24 36° NE 01:17:10 10° NE visible
17 Aug 10.7 03:11:56 28° NW 03:16:14 31° NNW 03:32:13 10° NNE visible
17 Aug 11.3 05:28:04 10° NW 05:37:59 16° N 05:46:38 10° NNE visible
17 Aug 11.3 23:57:08 16° NE 23:57:08 16° NE 23:59:45 10° NE visible
18 Aug 10.5 02:01:40 39° N 02:01:40 39° N 02:16:14 10° NE visible
18 Aug 11.2 04:06:11 11° WNW 04:18:41 21° NNW 04:31:00 10° NNE visible
19 Aug 10.9 00:51:22 30° NNE 00:51:22 30° NNE 00:59:33 10° NE visible
19 Aug 10.8 02:55:53 26° NW 02:59:36 27° NNW 03:15:02 10° NNE visible
19 Aug 11.4 05:11:46 10° NW 05:22:01 16° N 05:31:05 10° NNE visible
19 Aug 11.4 23:41:03 12° NE 23:41:03 12° NE 23:42:09 10° NE visible
